User: anonymous   Login
Location: Feydey
(46.3431°N, 7.0106°E)
Time: 12:07:05
(UTC+00:00)
Language:

Cosmos 1943 Rocket - Orbit

View from above orbital plane
View from above orbital plane
View from above satellite
View from above satellite

Ground track
Ground track

The orbit data is extracted from the following two-line orbital elements,

1 19120U 88039B   21261.11133543 -.00000049  00000-0 -55624-6 0  9997
2 19120  71.0115 281.4613 0023440 320.8207  39.1220 14.19226000726850
Epoch (UTC): 18 September 2021 02:40:19
Eccentricity: 0.0023440
inclination: 71.0115°
perigee height: 811 km
apogee height: 845 km
right ascension of ascending node: 281.4613°
argument of perigee: 320.8207°
revolutions per day: 14.19226000
mean anomaly at epoch: 39.1220°
orbit number at epoch: 72685

The dashed part of the orbit path shows where the satellite is in the earth's shadow,  

DLR